Regional Weather Roundup
Issued by NWS

Home | Current Version | Previous Version | Text Only | Print | Product List | Glossary Off
Versions: 1 2 3 4 5 6 7 8 9 10 11 12 13 14 15 16 17 18 19 20 21 22 23 24 25 26 27 28 29 30 31 32 33 34 35 36 37 38 39 40 41 42 43 44 45 46 47 48 49 50

000
ASUS45 KCYS 130510
RWRWY

WYOMING REGIONAL WEATHER ROUNDUP
NATIONAL WEATHER SERVICE CHEYENNE WY
1000 PM MST FRI FEB 12 2016

NOTE:  "FAIR" INDICATES FEW OR NO CLOUDS BELOW 12,000 FEET
WITH NO SIGNIFICANT WEATHER AND/OR OBSTRUCTIONS TO VISIBILITY.

WYZ001-130600-
YELLOWSTONE NATIONAL PARK

CITY           SKY/WX    TMP DP  RH WIND       PRES   REMARKS
LK YELLOWSTONE   N/A     27  18  69 CALM      30.26F
W YELLOWSTONE  NOT AVBL

$$
WYZ002>013-054>058-071-098>099-130600-
NORTHERN WYOMING

CITY           SKY/WX    TMP DP  RH WIND       PRES   REMARKS
JACKSON        FAIR      34  19  55 N5        30.24S WCI  30
CODY           FAIR      45  25  45 S6        30.09F
GREYBULL       FAIR      37  29  72 E6        30.10R WCI  32
WORLAND        FAIR      32  27  81 SE5       30.10S WCI  27
SHERIDAN       FAIR      31  27  85 NW6       30.09R WCI  25
BUFFALO        FAIR      37  29  72 S6        30.10S WCI  32
GILLETTE       FAIR      31  28  89 S26       30.12S WCI  17
HULETT         FAIR      34  30  86 SW5       30.14F WCI  30
NEWCASTLE      FAIR      30  27  86 SE9       30.21F WCI  22

$$
WYZ014>020-022>026-101>103-130600-
CENTRAL WYOMING

CITY           SKY/WX    TMP DP  RH WIND       PRES   REMARKS
BIG PINEY      FAIR      25  21  85 N3        30.27S
PINEDALE         N/A     25  23  93 NW6       30.28F WCI  18
DUBOIS         FAIR      34  14  44 NW20G25   30.19F WCI  22
LANDER         FAIR      33  26  75 W6        30.14R WCI  28
RIVERTON       FAIR      34  27  75 W8        30.15S WCI  27
CASPER         FAIR      43  24  47 CALM      30.14S
DOUGLAS        CLOUDY    30  29  96 SE12      30.18F FOG     WCI  20

$$
WYZ021-027>030-104>119-130600-
SOUTHERN WYOMING

CITY           SKY/WX    TMP DP  RH WIND       PRES   REMARKS
EVANSTON       FAIR      39  15  37 SW3       30.28F
KEMMERER       FAIR      28  16  59 N5        30.28S WCI  23
FORT BRIDGER   CLEAR     36  19  51 SW12      30.30S WCI  27
ROCK SPRINGS   FAIR      36  19  50 SW9       30.26F WCI  29
DIXON          FAIR      21  14  75 CALM      30.32F
RAWLINS        FAIR      39  22  50 W13       30.24F WCI  31
SARATOGA       FAIR      36  27  69 S3        30.27F
LARAMIE        FAIR      45  20  36 S12G18    30.22F
CHEYENNE       FAIR      31  29  92 S12       30.20F WCI  22
TORRINGTON     CLOUDY    32  30  92 E14       30.20F WCI  22
PINE BLUFFS    FOG       32  32 100 S8        30.25S VSB 1/2 WCI  25

$$



USA.gov is the U.S. government's official web portal to all federal, state and local government web resources and services.